Showing default

FLOCK 1C 6, 40036

Orbit data source: Space-Track

FLOCK 1C 6, 40036 is a payload satellite owned by Planet Labs (US) in SSO that was launched on Thu, 19 Jun 2014 UTC via a DNEPR launch vehicle from the Orenburg, Russia (OREN). Payloads include a variety of satellites, spacecraft, and rockets equipped with specific instruments for various scientific and technological missions. These include communications satellites like Starlink; space stations such as the ISS; scientific satellites like the Hubble; Earth observation satellites from companies like Planet Labs, Umbra, and HawkEye 360; GPS; miniature CubeSats for education and research; and military/defense satellites.

Loading next visibility...
FLOCK 1C 6 details
Identifier
40036, 2014-033AC
Orbit
SSO
Last TLE update7 hours ago
Origin
Flag of USPlanet Labs (US)
ManufacturerPlanet Labs
MissionNon-operational Commercial Imaging
Bus & MotorCUBESAT 3U, Unknown motor
Mass4.25 kg wet, 4.25 kg dry
Launch date (UTC)
2014-06-19 (11 years ago)
Launch vehicle
DNEPR
Launch site
Orenburg, Russia (OREN)
Object type
Payload
Rocket body
Debris
Shape & HBRBox + 2 Pan, 0.3 m
Radar Cross Section0.108 m², Small (<0.1 m²)

Expand to show TLE details & history

TLE from 7 hours ago
0 FLOCK 1C 6
1 40036U 14033AC  24361.27351003  .00125568  00000-0  25856-2 0  9996
2 40036  98.0888   4.9861 0003730 113.4154 246.7485 15.45450989573041
Epoch: 2024-12-26T06:33Z
Definitive object data (Epoch: 2024-12-26T06:33:51.266Z)
Latitude-0.00007°
Longitude171.26723°
Altitude434.161 km
Speed7.651 km/s
True Right ascension00h 19m 56s
True Declination0° 00' 00"
Sunlit
Object was in daylight at TLE epoch
Visualization TLE readout
Latitude-63.88875°
Longitude-171.62564°
Altitude456.801 km
Speed7.636 km/s
Apparent Right ascension01h 26m 15s
Apparent Declination-52° 09' 07"
Sunlit
Object is in daylight
Visualization observer readout
Local Sidereal Time13:24:57
Azimuth180.942° SSW
Elevation-77.762°
Doppler factor1
Orbital elements
Apogee altitude429.554 km
Perigee altitude424.478 km
Semi-major axis6,805.153 km
Eccentricity0.000373
Inclination98.0888°
RAAN4.9861°
Arg. of periapsis113.4154°
True anomaly246.70924°
Mean anomaly246.7485°
Eccentric anomaly246.72887°
Mean motion3.86622 °/min
BSTAR0.0025856
Orbital period93.11 mins
Loading maneuver chart data...
Loading historical data...
Loading historical data...
Loading historical data...
Loading historical data...
Loading historical data...
Loading historical data...
Loading historical data...

FLOCK 1C 6 Visibility forecast

Observer location: undefined°, undefined

Span
Click to sort rows by Start time (UTC) header in descending order
Start Az.
Max El. time (UTC)
Max El. Az.
Max El.
End time (UTC)
End Az.
4 mins2024-12-26 23:48:10.796Z118.206° SE2024-12-26 23:50:10.796Z76.933° E19.991°2024-12-26 23:52:10.796Z28.66° NE
|